7 * 24
多渠道服务支持
STARLINK-37069(NORAD编号68158)是美国SpaceX公司星链(Starlink)星座的第二代低轨宽带通信卫星,作为SpaceX大规模星座组网的组成单元,它依托星链成熟技术方案构建,承担全球卫星互联网接入服务。 该卫星部署在近地轨道,原轨道高度约550公里,2026年SpaceX将包括它在内的4400颗星链卫星轨道降至480公里,以降低碰撞风险,故障后可更快离轨再入大气层减少太空碎片。 它配备相控阵天线与激光互联设备,可实现低时延高速通信,支撑手机直连、偏远地区网络覆盖等应用,是星链全球宽带通信网络的重要节点。
美国
(US)
| 数据来源 | 国际轨道数据 |
| 星历时间: | 2026-05-24T09:21:09+0800 1天前 查看轨道信息 |
| 半长轴: | 6843.681km |
| 偏心率: | 0.0001517 |
| 轨道倾角: | 97.284° |
| 近地点辐角 | 101.373° |
| 升交点赤经 | 165.670° |
| 平近点角 | 258.768° |
| 近地点: | 464.505km |
| 远地点: | 466.583km |
| 周期: | 93.906分钟 |
| 每日圈数: | 15.334449 |